Location: Unspecified
(0.0000°N, 0.0000°E)
Time: 06:09:08

Vanguard 2 Rocket - Pass Details

Date: 17 December 2017
Orbit: 554 x 3327 km, 32.9° (Epoch: 19 March)

Event Time Altitude Azimuth Distance (km) Brightness Sun altitude
Exits shadow 03:01:22 67° 281° (W) 2,997 9.0 -39.3°
Maximum altitude 03:04:26 79° 218° (SW) 2,710 9.0 -38.7°
Drops below altitude 10° 03:17:06 10° 131° (SE) 4,243 11.0 -35.9°
Sets 03:19:49 0° 129° (SE) 4,935 11.6 -35.3°
